Weather History for KHLN - February, 2012

Change the Weather History Date:

Tuesday, February 14, 2012

  Actual Average Record
Temperature  
Mean Temperature 26 °F 27 °F  
Max Temperature 34 °F 38 °F 61 °F (2015)
Min Temperature 17 °F 17 °F -27 °F (1936)
Degree Days  
Heating Degree Days 39 38  
Month to date heating degree days 549 543  
Since 1 July heating degree days 4605 5061  
Cooling Degree Days 0 0  
Month to date cooling degree days 0 0  
Year to date cooling degree days 0 0  
Moisture  
Dew Point 19 °F    
Average Humidity 65    
Maximum Humidity 92    
Minimum Humidity 38    
Precipitation  
Precipitation 0.10 in 0.01 in 0.68 in (1910)
Month to date precipitation 0.45 0.14  
Year to date precipitation 1.73 0.50  
Snow  
Snow 3.00 in 0.20 in 10.50 in (1910)
Month to date snowfall 9.9 2.6  
Since 1 July snowfall 38.5 24.9  
Snow Depth 2.00 in    
Sea Level Pressure  
Sea Level Pressure 29.89 in    
Wind  
Wind Speed 5 mph (West)    
Max Wind Speed 16 mph    
Max Gust Speed 22 mph    
Visibility 8 miles    
Events Fog , Snow    
T = Trace of Precipitation, MM = Missing Value Source: NWS Daily Summary

Daily Weather History Graph

Daily Weather History Graph

Search for Another Location

Airport or City:

Trip Planner

Search our weather history database for the weather conditions in past years. The results will help you decide how hot, cold, wet, or windy it might be!

Date:

Astronomy

Feb. 14, 2012 Rise Set
Actual Time 7:33 AM MST 5:51 PM MST
Civil Twilight 7:02 AM MST 6:22 PM MST
Nautical Twilight 6:27 AM MST 6:57 PM MST
Astronomical Twilight 5:52 AM MST 7:32 PM MST
Moon 1:31 AM MST (2/14) 10:49 AM MST (2/14)
Length of Visible Light 11h 19m
Length of Day
10h 17m
Waning Gibbous, 49% of the Moon is Illuminated
Feb 14
Waning Gibbous
Feb 21
New
Feb 29
First Quarter
Mar 8
Full
Mar 14
Last Quarter

Hourly Weather History & Observations

Time (MST) Temp. Windchill Dew Point Humidity Pressure Visibility Wind Dir Wind Speed Gust Speed Precip Events Conditions
12:53 AM 30.0 °F 25.2 °F 23.0 °F 75% 29.89 in 9.0 mi Variable 4.6 mph - N/A   Overcast
1:53 AM 33.1 °F 24.9 °F 23.0 °F 66% 29.86 in 10.0 mi West 10.4 mph 17.3 mph N/A   Overcast
2:53 AM 32.0 °F 26.4 °F 24.1 °F 73% 29.86 in 10.0 mi NNW 5.8 mph - N/A   Overcast
3:53 AM 33.1 °F 23.9 °F 21.0 °F 61% 29.85 in 10.0 mi West 12.7 mph - N/A   Clear
4:53 AM 30.0 °F 26.5 °F 19.9 °F 66% 29.86 in 10.0 mi WNW 3.5 mph - N/A   Mostly Cloudy
5:53 AM 30.0 °F - 19.9 °F 66% 29.86 in 10.0 mi Calm Calm - N/A   Overcast
6:53 AM 28.9 °F 21.9 °F 19.9 °F 69% 29.87 in 10.0 mi NNW 6.9 mph - N/A   Overcast
7:53 AM 26.1 °F - 19.9 °F 78% 29.91 in 10.0 mi Calm Calm - N/A   Mostly Cloudy
8:29 AM 24.8 °F 16.9 °F 21.2 °F 86% 29.78 in 2.0 mi North 6.9 mph - 0.00 in Snow Light Snow
8:34 AM 24.8 °F 13.4 °F 21.2 °F 86% 29.78 in 0.8 mi NNW 12.7 mph - 0.00 in Snow Light Snow
8:42 AM 24.8 °F 16.1 °F 21.2 °F 86% 29.79 in 0.2 mi NNW 8.1 mph - 0.01 in Fog , Snow Snow
8:53 AM 24.1 °F 16.0 °F 23.0 °F 96% 29.96 in 0.2 mi North 6.9 mph - 0.02 in Fog , Snow Heavy Snow
9:48 AM 24.8 °F 17.9 °F 23.0 °F 93% 29.79 in 1.0 mi SSW 5.8 mph - 0.08 in Snow Light Snow
9:50 AM 24.8 °F 17.9 °F 23.0 °F 93% 29.79 in 1.5 mi SW 5.8 mph - 0.08 in Snow Light Snow
9:53 AM 25.0 °F 19.3 °F 23.0 °F 92% 29.96 in 2.0 mi SSW 4.6 mph - 0.08 in Snow Light Snow
10:02 AM 24.8 °F 17.9 °F 21.2 °F 86% 29.79 in 6.0 mi SSW 5.8 mph - 0.00 in Snow Light Snow
10:53 AM 26.6 °F - 19.4 °F 74% 29.79 in 10.0 mi Calm Calm - N/A   Mostly Cloudy
11:53 AM 28.9 °F - 19.9 °F 69% 29.93 in 10.0 mi Calm Calm - 0.00 in   Mostly Cloudy
12:53 PM 28.0 °F 24.2 °F 19.0 °F 69% 29.93 in 10.0 mi SE 3.5 mph - N/A   Partly Cloudy
1:53 PM 30.0 °F 25.2 °F 19.9 °F 66% 29.89 in 10.0 mi ESE 4.6 mph - N/A   Partly Cloudy
2:53 PM 30.0 °F 24.1 °F 19.9 °F 66% 29.88 in 10.0 mi East 5.8 mph - N/A   Clear
3:53 PM 32.0 °F 27.5 °F 19.0 °F 59% 29.88 in 10.0 mi ENE 4.6 mph - N/A   Clear
4:53 PM 33.1 °F 25.5 °F 10.9 °F 40% 29.88 in 10.0 mi WNW 9.2 mph - N/A   Clear
5:53 PM 28.9 °F 21.9 °F 12.0 °F 49% 29.91 in 10.0 mi WSW 6.9 mph - N/A   Clear
6:53 PM 25.0 °F - 12.0 °F 58% 29.94 in 10.0 mi Calm Calm - N/A   Clear
7:53 PM 28.9 °F 21.9 °F 10.9 °F 47% 29.95 in 10.0 mi SSW 6.9 mph - N/A   Clear
8:53 PM 27.0 °F 20.5 °F 12.0 °F 53% 29.97 in 10.0 mi SW 5.8 mph - N/A   Clear
9:53 PM 26.1 °F 19.4 °F 12.0 °F 55% 29.99 in 10.0 mi WSW 5.8 mph - N/A   Partly Cloudy
10:53 PM 19.0 °F 12.3 °F 10.0 °F 68% 30.02 in 10.0 mi NNE 4.6 mph - N/A   Partly Cloudy
11:53 PM 18.0 °F - 10.9 °F 74% 30.02 in 10.0 mi Calm Calm - N/A   Mostly Cloudy